| time (UTC) | temp C | wind direction | speed KPH | gust KPH | rain 1hr cm | rain 24hr cm | rain mn cm | humidity % | barometer mb |
| 20260505190003 | 19 | 167 | 8.0 | 16.1 | 0.00 | 0.00 | 0.00 | 38 | 1015.4 |
| 20260505185003 | 19 | 136 | 4.8 | 16.1 | 0.00 | 0.00 | 0.00 | 38 | 1015.4 |
| 20260505184003 | 19 | 88 | 3.2 | 12.9 | 0.00 | 0.00 | 0.00 | 37 | 1015.5 |
| 20260505183212 | 20 | 170 | 3.2 | 9.7 | 0.00 | 0.00 | 0.00 | 38 | 1015.5 |
| 20260505182003 | 19 | 162 | 4.8 | 16.1 | 0.00 | 0.00 | 0.00 | 37 | 1015.4 |
| 20260505181214 | 19 | 140 | 3.2 | 14.5 | 0.00 | 0.00 | 0.00 | 37 | 1015.4 |
| 20260505180214 | 19 | 117 | 1.6 | 6.4 | 0.00 | 0.00 | 0.00 | 36 | 1015.4 |
| 20260505175003 | 18 | 114 | 4.8 | 11.3 | 0.00 | 0.00 | 0.00 | 38 | 1015.4 |
| 20260505174003 | 18 | 121 | 3.2 | 11.3 | 0.00 | 0.00 | 0.00 | 39 | 1015.4 |
| 20260505173214 | 18 | 119 | 3.2 | 11.3 | 0.00 | 0.00 | 0.00 | 39 | 1015.4 |
| 20260505172004 | 18 | 134 | 0.0 | 6.4 | 0.00 | 0.00 | 0.00 | 41 | 1015.4 |
| 20260505171003 | 18 | 137 | 1.6 | 8.0 | 0.00 | 0.00 | 0.00 | 38 | 1015.4 |
| 20260505170214 | 18 | 162 | 1.6 | 9.7 | 0.00 | 0.00 | 0.00 | 38 | 1015.5 |
| 20260505165003 | 18 | 314 | 0.0 | 4.8 | 0.00 | 0.00 | 0.00 | 36 | 1015.4 |
| 20260505164214 | 17 | 348 | 0.0 | 8.0 | 0.00 | 0.00 | 0.00 | 38 | 1015.3 |
| 20260505163003 | 17 | 301 | 0.0 | 1.6 | 0.00 | 0.00 | 0.00 | 36 | 1015.3 |
| 20260505162003 | 17 | 108 | 1.6 | 8.0 | 0.00 | 0.00 | 0.00 | 38 | 1015.3 |
| 20260505161003 | 16 | 114 | 3.2 | 9.7 | 0.00 | 0.00 | 0.00 | 43 | 1015.2 |
| 20260505160213 | 16 | 101 | 3.2 | 6.4 | 0.00 | 0.00 | 0.00 | 43 | 1015.2 |
| 20260505153003 | 15 | 86 | 3.2 | 8.0 | 0.00 | 0.00 | 0.00 | 43 | 1015.3 |
| 20260505152003 | 15 | 88 | 1.6 | 6.4 | 0.00 | 0.00 | 0.00 | 45 | 1015.2 |
| 20260505151003 | 15 | 84 | 1.6 | 8.0 | 0.00 | 0.00 | 0.00 | 43 | 1015.2 |
| 20260505125003 | 12 | 343 | 4.8 | 8.0 | 0.00 | 0.00 | 0.00 | 53 | 1013.8 |
| 20260505124214 | 12 | 344 | 4.8 | 8.0 | 0.00 | 0.00 | 0.00 | 52 | 1013.8 |
| 20260505123003 | 12 | 346 | 6.4 | 9.7 | 0.00 | 0.00 | 0.00 | 52 | 1013.8 |
| 20260505122003 | 12 | 346 | 6.4 | 9.7 | 0.00 | 0.00 | 0.00 | 52 | 1013.7 |
| 20260505121003 | 12 | 343 | 6.4 | 11.3 | 0.00 | 0.00 | 0.00 | 51 | 1013.6 |
| 20260505120004 | 12 | 345 | 6.4 | 11.3 | 0.00 | 0.00 | 0.00 | 52 | 1013.6 |
| 20260505115003 | 12 | 341 | 8.0 | 12.9 | 0.00 | 0.00 | 0.00 | 52 | 1013.4 |
| 20260505114004 | 12 | 341 | 6.4 | 11.3 | 0.00 | 0.00 | 0.00 | 53 | 1013.4 |
| 20260505113003 | 12 | 341 | 4.8 | 9.7 | 0.00 | 0.00 | 0.00 | 54 | 1013.4 |
| 20260505112214 | 12 | 346 | 4.8 | 11.3 | 0.00 | 0.00 | 0.00 | 54 | 1013.5 |
| 20260505111214 | 12 | 344 | 3.2 | 8.0 | 0.00 | 0.00 | 0.00 | 55 | 1013.5 |
| 20260505102003 | 12 | 344 | 6.4 | 9.7 | 0.00 | 0.00 | 0.00 | 51 | 1013.2 |
| 20260505101003 | 12 | 341 | 4.8 | 9.7 | 0.00 | 0.00 | 0.00 | 53 | 1013.1 |
| 20260505100003 | 12 | 347 | 4.8 | 9.7 | 0.00 | 0.00 | 0.00 | 53 | 1013.0 |
| 20260505095003 | 12 | 340 | 4.8 | 8.0 | 0.00 | 0.00 | 0.00 | 51 | 1013.1 |
| 20260505094003 | 12 | 341 | 4.8 | 8.0 | 0.00 | 0.00 | 0.00 | 50 | 1013.0 |
| 20260505093004 | 12 | 344 | 6.4 | 9.7 | 0.00 | 0.00 | 0.00 | 50 | 1013.0 |
| 20260505092213 | 12 | 341 | 6.4 | 11.3 | 0.00 | 0.00 | 0.00 | 50 | 1013.0 |
| 20260505091003 | 12 | 341 | 6.4 | 9.7 | 0.00 | 0.00 | 0.00 | 49 | 1013.0 |
| 20260505090004 | 12 | 342 | 6.4 | 9.7 | 0.00 | 0.00 | 0.00 | 48 | 1013.0 |
| 20260505085003 | 13 | 337 | 4.8 | 9.7 | 0.00 | 0.00 | 0.00 | 47 | 1013.0 |
| 20260505084004 | 13 | 337 | 3.2 | 8.0 | 0.00 | 0.00 | 0.00 | 47 | 1013.0 |
| 20260505083003 | 13 | 339 | 4.8 | 9.7 | 0.00 | 0.00 | 0.00 | 47 | 1013.0 |
| 20260505082003 | 13 | 341 | 6.4 | 9.7 | 0.00 | 0.00 | 0.00 | 47 | 1013.0 |
| 20260505081003 | 13 | 344 | 6.4 | 9.7 | 0.00 | 0.00 | 0.00 | 47 | 1013.0 |
| 20260505080213 | 13 | 341 | 4.8 | 9.7 | 0.00 | 0.00 | 0.00 | 48 | 1013.0 |
| 20260505075003 | 13 | 328 | 1.6 | 8.0 | 0.00 | 0.00 | 0.00 | 46 | 1012.9 |
| 20260505074003 | 14 | 340 | 3.2 | 9.7 | 0.00 | 0.00 | 0.00 | 45 | 1012.9 |
| 20260505073003 | 14 | 333 | 1.6 | 8.0 | 0.00 | 0.00 | 0.00 | 46 | 1012.8 |
| 20260505072003 | 15 | 322 | 0.0 | 6.4 | 0.00 | 0.00 | 0.00 | 45 | 1012.7 |
| 20260505071003 | 15 | 319 | 0.0 | 6.4 | 0.00 | 0.00 | 0.00 | 45 | 1012.6 |
| 20260505070004 | 15 | 317 | 1.6 | 8.0 | 0.00 | 0.00 | 0.00 | 43 | 1012.5 |
| 20260505065003 | 15 | 322 | 1.6 | 6.4 | 0.00 | 0.00 | 0.00 | 43 | 1012.4 |
| 20260505064003 | 15 | 325 | 1.6 | 8.0 | 0.00 | 0.00 | 0.00 | 45 | 1012.5 |
| 20260505063003 | 15 | 325 | 1.6 | 6.4 | 0.00 | 0.00 | 0.00 | 47 | 1012.5 |
| 20260505062003 | 14 | 333 | 0.0 | 4.8 | 0.00 | 0.00 | 0.00 | 49 | 1012.4 |
| 20260505061003 | 15 | 319 | 1.6 | 9.7 | 0.00 | 0.00 | 0.00 | 47 | 1012.3 |
| 20260505060003 | 15 | 314 | 3.2 | 11.3 | 0.00 | 0.00 | 0.00 | 47 | 1012.3 |
| 20260505055003 | 15 | 310 | 3.2 | 9.7 | 0.00 | 0.00 | 0.00 | 48 | 1012.3 |
| 20260505054003 | 15 | 310 | 3.2 | 11.3 | 0.00 | 0.00 | 0.00 | 48 | 1012.2 |
| 20260505053004 | 16 | 310 | 3.2 | 11.3 | 0.00 | 0.00 | 0.00 | 47 | 1012.3 |
| 20260505052003 | 16 | 309 | 3.2 | 12.9 | 0.00 | 0.00 | 0.00 | 47 | 1012.2 |
| 20260505051003 | 16 | 312 | 4.8 | 11.3 | 0.00 | 0.00 | 0.00 | 47 | 1012.2 |
| 20260505041003 | 17 | 313 | 1.6 | 12.9 | 0.00 | 0.00 | 0.00 | 37 | 1011.7 |
| 20260505040004 | 17 | 315 | 3.2 | 12.9 | 0.00 | 0.00 | 0.00 | 37 | 1011.6 |
| 20260505035004 | 17 | 343 | 1.6 | 6.4 | 0.00 | 0.00 | 0.00 | 37 | 1011.5 |
| 20260505034003 | 17 | 340 | 3.2 | 6.4 | 0.00 | 0.00 | 0.00 | 36 | 1011.3 |
| 20260505033003 | 18 | 355 | 3.2 | 6.4 | 0.00 | 0.00 | 0.00 | 35 | 1011.3 |
| 20260505032213 | 18 | 1 | 4.8 | 9.7 | 0.00 | 0.00 | 0.00 | 34 | 1011.2 |
| 20260505031004 | 19 | 360 | 4.8 | 11.3 | 0.00 | 0.00 | 0.00 | 33 | 1011.2 |
| 20260505030003 | 20 | 5 | 4.8 | 12.9 | 0.00 | 0.00 | 0.00 | 32 | 1011.0 |
| 20260505025004 | 20 | 3 | 4.8 | 9.7 | 0.00 | 0.00 | 0.00 | 31 | 1010.9 |
| 20260505024003 | 20 | 1 | 3.2 | 11.3 | 0.00 | 0.00 | 0.00 | 31 | 1010.8 |
| 20260505023003 | 20 | 6 | 4.8 | 12.9 | 0.00 | 0.00 | 0.00 | 32 | 1010.7 |
| 20260505022003 | 20 | 5 | 3.2 | 9.7 | 0.00 | 0.00 | 0.00 | 32 | 1010.7 |
| 20260505021214 | 20 | 11 | 3.2 | 12.9 | 0.00 | 0.00 | 0.00 | 32 | 1010.7 |
| 20260505020214 | 20 | 13 | 6.4 | 16.1 | 0.00 | 0.00 | 0.00 | 32 | 1010.7 |
| 20260505015003 | 21 | 14 | 8.0 | 19.3 | 0.00 | 0.00 | 0.00 | 30 | 1010.7 |
| 20260505014003 | 21 | 6 | 6.4 | 16.1 | 0.00 | 0.00 | 0.00 | 29 | 1010.7 |
| 20260505013003 | 21 | 5 | 6.4 | 12.9 | 0.00 | 0.00 | 0.00 | 25 | 1010.7 |
| 20260505012003 | 21 | 360 | 3.2 | 12.9 | 0.00 | 0.00 | 0.00 | 25 | 1010.8 |
| 20260505011003 | 21 | 350 | 0.0 | 6.4 | 0.00 | 0.00 | 0.00 | 25 | 1010.8 |
| 20260505010003 | 22 | 320 | 0.0 | 3.2 | 0.00 | 0.00 | 0.00 | 25 | 1010.8 |
| 20260505005004 | 22 | 319 | 3.2 | 9.7 | 0.00 | 0.00 | 0.00 | 25 | 1010.8 |
| 20260505004003 | 22 | 311 | 0.0 | 8.0 | 0.00 | 0.00 | 0.00 | 26 | 1010.8 |
| 20260505003003 | 21 | 357 | 1.6 | 8.0 | 0.00 | 0.00 | 0.00 | 29 | 1010.8 |
| 20260505002003 | 21 | 300 | 4.8 | 6.4 | 0.00 | 0.00 | 0.00 | 30 | 1010.8 |
| 20260505001214 | 21 | 292 | 1.6 | 6.4 | 0.00 | 0.00 | 0.00 | 31 | 1010.8 |
| 20260505000003 | 21 | 293 | 0.0 | 4.8 | 0.00 | 0.00 | 0.00 | 29 | 1010.7 |
| 20260504235003 | 22 | 0 | 0.0 | 0.0 | 0.00 | 0.00 | 0.00 | 28 | 1010.8 |
| 20260504234003 | 22 | 285 | 0.0 | 4.8 | 0.00 | 0.00 | 0.00 | 27 | 1010.8 |
| 20260504233003 | 22 | 294 | 0.0 | 6.4 | 0.00 | 0.00 | 0.00 | 25 | 1010.8 |
| 20260504232003 | 22 | 310 | 0.0 | 4.8 | 0.00 | 0.00 | 0.00 | 25 | 1010.9 |
| 20260504231003 | 22 | 311 | 1.6 | 8.0 | 0.00 | 0.00 | 0.00 | 25 | 1010.9 |
| 20260504230215 | 22 | 304 | 3.2 | 9.7 | 0.00 | 0.00 | 0.00 | 25 | 1011.0 |
| 20260504225213 | 22 | 291 | 6.4 | 14.5 | 0.00 | 0.00 | 0.00 | 25 | 1011.0 |
| 20260504224003 | 23 | 254 | 8.0 | 17.7 | 0.00 | 0.00 | 0.00 | 24 | 1011.0 |
| 20260504223003 | 23 | 239 | 6.4 | 24.1 | 0.00 | 0.00 | 0.00 | 24 | 1011.1 |
| 20260504222003 | 22 | 233 | 6.4 | 19.3 | 0.00 | 0.00 | 0.00 | 24 | 1011.2 |
| 20260504221003 | 22 | 249 | 8.0 | 19.3 | 0.00 | 0.00 | 0.00 | 24 | 1011.2 |
| 20260504220003 | 23 | 232 | 6.4 | 14.5 | 0.00 | 0.00 | 0.00 | 26 | 1011.3 |
| 20260504215003 | 22 | 272 | 4.8 | 16.1 | 0.00 | 0.00 | 0.00 | 25 | 1011.4 |
| 20260504214003 | 22 | 241 | 6.4 | 16.1 | 0.00 | 0.00 | 0.00 | 25 | 1011.5 |
| 20260504213212 | 22 | 237 | 6.4 | 17.7 | 0.00 | 0.00 | 0.00 | 25 | 1011.6 |
| 20260504212003 | 22 | 241 | 4.8 | 12.9 | 0.00 | 0.00 | 0.00 | 25 | 1011.6 |
| 20260504211003 | 22 | 264 | 9.7 | 19.3 | 0.00 | 0.00 | 0.00 | 25 | 1011.8 |
| 20260504210003 | 22 | 197 | 8.0 | 17.7 | 0.00 | 0.00 | 0.00 | 25 | 1011.8 |
| 20260504205003 | 22 | 255 | 6.4 | 16.1 | 0.00 | 0.00 | 0.00 | 25 | 1012.0 |
| 20260504204003 | 22 | 271 | 4.8 | 17.7 | 0.00 | 0.00 | 0.00 | 26 | 1011.9 |
| 20260504203003 | 22 | 248 | 6.4 | 14.5 | 0.00 | 0.00 | 0.00 | 24 | 1012.1 |
| 20260504202003 | 22 | 156 | 6.4 | 16.1 | 0.00 | 0.00 | 0.00 | 27 | 1012.1 |
| 20260504201003 | 21 | 222 | 6.4 | 17.7 | 0.00 | 0.00 | 0.00 | 25 | 1012.3 |
| 20260504200004 | 22 | 231 | 6.4 | 14.5 | 0.00 | 0.00 | 0.00 | 24 | 1012.4 |
| 20260504195214 | 21 | 266 | 6.4 | 12.9 | 0.00 | 0.00 | 0.00 | 24 | 1012.4 |
| 20260504194214 | 22 | 239 | 4.8 | 17.7 | 0.00 | 0.00 | 0.00 | 24 | 1012.5 |
| 20260504193003 | 22 | 278 | 3.2 | 12.9 | 0.00 | 0.00 | 0.00 | 24 | 1012.6 |
| 20260504192214 | 21 | 343 | 4.8 | 12.9 | 0.00 | 0.00 | 0.00 | 23 | 1012.6 |
| 20260504191003 | 21 | 48 | 11.3 | 20.9 | 0.00 | 0.00 | 0.00 | 25 | 1012.5 |